Wind_Speed
34 33 34 34 33 33 34 33 32 32 32 32 31 30 30 29 30 29 26 26 28 27 25 23 22 23 23 18 16 20 19 16 16 16 15 15 15 13 12 11 9 9
34 34 33 33 32 32 33 34 33 32 32 32 31 30 29 28 29 28 26 25 26 27 27 24 22 23 23 19 16 18 21 19 16 16 16 17 17 15 14 13 12 12
29 31 32 33 32 31 32 32 32 32 31 31 31 30 28 27 28 27 25 25 25 27 28 26 24 24 23 21 17 16 20 21 17 16 16 17 17 16 14 13 14 15
29 30 30 32 32 32 31 31 31 30 31 30 29 29 28 27 27 27 25 24 23 25 28 27 26 25 23 21 18 16 18 19 18 16 15 16 16 15 14 12 14 16
29 27 29 31 30 30 30 30 30 29 29 30 29 28 28 26 26 27 27 26 24 23 25 27 27 26 25 23 21 19 19 19 18 17 17 17 17 16 15 14 14 15
25 23 24 29 29 29 29 28 29 29 28 29 28 28 28 26 25 26 27 27 27 25 24 25 27 26 25 25 24 22 22 21 20 19 19 19 19 19 18 17 17 16
23 21 20 23 26 27 28 27 28 28 28 29 28 28 29 28 26 25 26 26 25 26 25 24 27 27 24 25 25 23 23 22 21 20 20 20 20 21 19 18 18 18
23 25 21 21 22 24 25 26 27 27 28 28 28 29 28 28 27 26 26 25 24 25 25 24 26 27 24 24 26 25 23 22 21 21 22 22 22 22 20 17 18 20
21 24 24 22 21 21 22 23 25 26 27 28 28 29 29 29 28 26 25 25 25 25 25 25 26 27 26 25 27 27 25 24 23 23 23 24 24 24 23 20 19 20
21 22 22 23 23 22 22 22 23 25 26 27 27 28 30 30 29 28 25 24 25 26 26 26 26 27 27 27 28 28 27 26 26 25 24 25 26 26 24 23 22 22
23 22 21 22 24 24 22 21 22 23 24 26 26 27 28 29 30 30 27 24 23 25 26 27 27 28 29 29 29 29 28 28 28 28 27 26 26 26 24 23 24 25
22 21 20 21 23 24 23 22 22 23 23 24 25 25 25 27 28 29 30 27 25 23 24 26 28 28 29 30 29 29 29 28 29 29 29 28 28 27 25 24 25 26
19 19 19 20 21 23 24 25 25 25 24 24 24 24 24 24 25 27 29 29 27 24 23 25 28 29 29 30 30 29 29 29 29 29 29 28 28 28 26 24 24 26
18 18 19 21 22 23 24 25 26 26 26 24 24 24 24 25 25 26 28 30 29 27 24 23 25 28 29 29 29 29 29 28 28 28 29 29 28 27 27 25 24 27
20 20 21 22 22 22 22 23 24 24 24 24 25 26 26 26 27 27 28 30 30 29 26 23 23 25 27 29 29 28 28 28 27 26 27 28 28 27 27 25 24 25
21 21 22 22 21 21 22 23 22 22 23 24 26 27 26 27 29 28 28 29 31 31 29 25 24 24 26 28 29 29 29 28 28 27 25 26 27 26 26 25 24 24
21 21 21 22 22 22 22 22 22 23 24 24 25 25 25 26 29 29 28 28 30 32 31 28 25 23 25 28 30 30 29 29 29 28 26 24 25 26 26 27 27 27
19 19 19 19 21 21 19 20 21 22 24 25 25 25 25 25 26 28 28 29 29 31 32 31 27 22 23 29 32 32 31 30 29 29 27 26 26 26 27 27 29 29
17 17 17 19 21 20 18 20 22 23 24 26 27 27 26 25 25 24 25 27 29 29 30 32 31 24 20 24 29 30 29 31 32 31 30 30 29 28 27 27 28 30
16 16 17 18 19 19 19 20 22 22 23 25 27 27 28 28 26 24 23 24 27 28 29 31 32 28 23 22 25 26 25 27 31 32 31 31 30 30 28 26 26 27
15 16 16 17 18 19 19 20 21 23 24 25 26 27 27 27 27 27 25 24 24 26 28 29 30 30 25 22 24 26 25 24 28 30 30 30 29 30 30 29 27 26
14 15 15 16 17 18 19 20 21 23 25 26 25 26 25 26 27 27 27 26 24 23 25 28 29 28 26 22 24 27 26 23 26 29 29 29 29 29 30 30 30 29
14 15 15 15 15 16 17 18 19 20 22 22 22 23 24 24 25 26 26 26 25 23 24 26 27 27 25 22 23 26 25 23 24 27 28 29 30 31 31 31 30 30
13 13 15 15 15 15 16 16 16 17 19 19 19 19 20 21 21 22 23 24 24 23 23 24 25 25 22 21 22 24 24 25 25 25 26 26 27 29 31 32 31 30
12 12 13 15 15 15 16 15 15 16 17 17 18 18 18 18 18 19 20 20 20 21 21 22 24 24 22 21 22 22 22 23 24 23 23 23 23 23 25 28 30 32
13 13 14 14 15 15 14 14 13 14 15 16 16 16 16 15 15 16 16 15 15 16 17 20 22 23 22 22 21 20 20 20 20 21 22 23 23 23 23 24 26 28
Wind_Direction
195 192 193 192 192 191 190 189 190 192 193 192 192 193 193 195 195 194 195 198 200 198 195 196 198 203 206 203 200 206 213 218 220 222 222 220 223 229 232 229 233 244
192 191 192 191 191 191 190 191 191 192 193 194 194 193 193 193 195 196 197 198 202 201 198 196 197 203 210 208 204 208 214 217 218 220 223 224 229 234 236 236 233 237
188 187 190 191 191 192 192 193 194 194 195 195 196 196 194 193 194 196 197 199 202 203 200 198 198 203 210 213 213 208 210 214 214 215 220 223 227 230 232 237 235 234
185 186 189 191 193 193 193 194 195 196 197 197 197 198 197 195 196 199 199 199 202 204 204 202 202 205 211 218 220 210 207 212 213 214 220 224 226 228 230 236 238 235
185 187 189 190 192 194 195 196 197 197 198 198 198 198 197 196 199 202 204 204 206 207 208 208 209 211 216 223 225 217 211 212 213 214 222 228 227 227 231 237 240 239
186 189 190 189 190 193 195 198 200 201 201 202 201 199 198 198 199 201 204 207 210 211 211 211 211 213 217 224 227 224 219 217 216 217 223 228 227 227 232 239 241 242
188 189 190 191 190 192 196 198 201 204 205 205 204 203 201 200 201 202 203 206 209 210 212 212 212 212 217 222 222 221 219 219 220 222 224 226 226 227 231 238 240 241
186 184 185 191 193 194 197 199 202 205 207 208 207 206 204 203 204 204 205 208 210 210 211 213 214 214 217 219 217 215 215 217 221 224 226 227 226 228 229 232 238 240
187 185 186 189 193 198 201 203 205 207 209 211 211 209 207 205 205 206 207 210 214 214 212 213 216 217 218 218 217 217 216 218 222 225 229 229 229 231 232 234 237 239
190 190 192 194 195 198 203 206 209 210 211 213 214 213 211 209 208 208 207 209 214 217 215 214 216 217 219 222 223 223 222 223 225 228 231 231 231 234 237 238 239 240
193 190 194 198 198 198 200 203 205 208 211 213 215 216 215 214 214 213 213 212 213 216 216 216 217 219 221 223 226 228 229 229 229 229 231 232 232 234 238 241 242 242
197 195 198 202 203 202 203 203 202 203 206 209 213 217 218 218 218 217 217 217 216 218 219 218 218 220 222 224 226 228 230 230 230 229 230 232 233 234 238 244 245 243
198 203 208 212 214 214 213 211 210 208 207 208 209 213 217 219 219 218 216 215 216 218 220 219 218 219 222 225 226 227 228 229 229 229 230 233 235 236 238 244 245 242
196 202 208 215 219 220 221 220 220 219 216 213 211 212 216 219 221 221 216 213 214 217 217 218 219 221 224 226 226 225 224 226 228 229 230 232 235 237 238 243 245 243
204 206 208 212 213 215 219 221 222 222 221 218 217 217 219 220 222 222 218 214 214 216 216 218 223 227 228 227 227 225 224 225 228 230 231 232 234 237 240 243 246 245
212 214 215 217 215 213 219 220 217 217 219 219 218 217 218 219 220 219 218 216 216 216 218 220 224 229 230 228 228 229 229 229 230 230 231 232 232 234 237 241 244 247
211 214 218 223 223 220 221 220 217 216 217 218 217 215 215 217 216 216 216 217 217 217 219 221 222 228 233 231 230 230 231 230 229 230 230 232 233 232 235 240 244 247
205 207 211 220 226 224 220 217 216 216 216 215 213 210 210 212 213 214 216 217 217 217 219 220 220 225 231 232 231 231 232 230 228 229 231 232 234 236 239 243 246 248
198 198 203 214 222 224 219 215 215 217 216 215 213 212 213 214 215 216 218 219 218 217 218 220 221 224 229 231 230 231 232 231 229 230 232 234 236 238 241 246 248 246
197 197 204 211 215 216 214 212 213 217 218 216 215 215 216 217 219 221 222 222 221 220 220 221 224 227 231 235 233 231 230 230 230 231 233 235 238 239 240 244 247 243
196 196 204 210 210 209 209 210 211 213 214 214 215 215 215 217 220 222 223 223 224 225 226 227 229 232 233 238 240 236 232 231 230 230 232 236 240 241 241 243 246 246
196 194 201 208 209 209 210 211 211 212 213 215 216 217 217 217 218 219 220 221 224 228 231 231 234 234 234 240 241 234 231 233 231 229 231 235 239 241 242 244 248 250
209 202 203 207 211 213 212 213 216 219 219 218 217 218 218 217 219 219 219 220 224 229 232 232 234 233 232 240 242 234 232 238 239 237 237 239 242 243 244 246 248 251
222 212 204 205 212 216 215 216 219 223 226 224 221 222 223 222 222 221 220 221 224 228 231 234 235 233 234 241 242 237 237 242 245 246 247 247 249 249 247 247 248 250
223 218 206 203 209 215 218 219 221 224 228 226 225 227 229 227 224 222 222 224 228 232 236 240 241 240 241 244 241 238 239 240 241 244 247 250 254 255 252 251 251 252
217 217 213 211 212 214 216 218 220 222 222 222 222 223 226 229 228 225 224 227 233 239 241 243 245 244 245 245 241 238 239 240 243 246 249 251 253 255 255 256 255 255
Height
790 793 796 798 800 802 804 806 808 810 812 813 815 816 818 819 821 823 824 826 828 830 831 832 834 835 836 837 838 839 840 841 842 843 844 845 845 846 846 846 847 847
787 790 794 796 799 801 803 805 806 808 810 812 814 815 817 819 820 821 823 825 826 828 830 831 833 834 835 836 837 838 839 840 841 842 843 844 845 845 845 846 846 846
786 789 792 794 797 799 802 804 806 807 809 811 813 814 816 818 819 821 822 824 825 827 828 830 831 832 834 835 836 837 838 839 840 841 842 843 844 844 845 845 845 846
785 787 790 792 795 797 800 802 804 806 808 810 812 813 815 816 818 819 821 822 824 825 827 828 830 831 832 834 835 836 836 838 839 840 841 842 843 844 844 845 845 845
784 786 788 790 793 796 798 800 803 804 806 808 810 812 814 815 817 818 820 821 822 824 825 827 828 829 831 832 833 835 835 836 838 839 840 841 842 843 843 844 844 844
783 786 787 789 791 794 796 798 801 802 804 807 809 811 812 814 815 817 818 819 821 822 824 825 827 828 829 831 832 833 834 835 836 837 839 839 841 841 842 843 843 843
782 786 789 790 790 792 794 796 799 801 803 805 807 809 810 812 814 815 817 818 819 821 822 823 825 826 828 829 830 831 832 833 835 836 837 838 839 840 841 841 842 842
780 784 787 790 790 791 793 795 797 799 801 803 805 807 808 810 812 814 815 817 818 819 821 822 823 825 826 828 829 830 831 832 833 834 835 836 837 838 839 840 840 841
779 782 785 787 789 790 792 793 796 798 800 802 803 805 806 808 810 812 814 815 816 818 819 820 822 823 825 826 827 828 829 830 831 832 833 834 835 836 837 838 839 839
778 781 783 785 787 788 790 792 794 796 799 800 802 803 804 806 808 810 812 814 815 816 817 819 820 821 823 824 825 826 827 828 829 830 831 832 833 834 835 836 837 837
776 779 782 784 785 787 789 791 793 795 797 798 800 801 802 804 806 808 810 812 813 814 815 817 818 819 821 822 823 824 825 827 828 829 830 830 831 832 833 834 835 836
776 778 781 783 784 786 788 790 792 794 795 796 797 799 800 802 804 806 808 809 811 812 813 814 815 817 818 819 821 822 823 825 826 827 828 829 829 830 831 832 833 834
776 779 781 782 783 785 787 789 790 791 793 794 796 797 799 800 802 804 805 807 808 810 811 812 813 815 816 817 819 820 821 823 824 825 826 827 827 828 829 830 831 832
775 776 777 778 779 782 785 786 787 789 790 792 794 796 797 799 800 801 803 804 806 807 808 810 811 812 814 815 816 818 819 820 822 823 824 825 825 826 827 828 829 829
772 772 773 773 775 778 781 783 784 786 788 790 791 793 795 797 798 799 800 801 802 804 806 807 809 810 811 813 814 816 817 818 819 820 821 822 823 824 825 826 827 828
770 771 772 773 774 776 777 779 782 783 785 787 788 790 792 794 795 796 797 798 799 801 803 804 805 807 808 810 812 813 815 816 817 818 819 820 820 821 823 824 824 825
769 770 770 771 772 774 775 777 779 780 781 784 785 787 789 790 792 793 794 795 797 798 800 802 803 804 806 808 809 811 812 813 814 815 816 817 818 819 820 821 822 823
769 770 770 770 769 771 773 775 777 778 779 782 783 785 787 788 789 790 791 793 794 796 798 799 800 802 804 805 807 808 810 810 811 813 814 815 816 817 818 819 819 820
770 770 770 769 768 769 772 773 775 777 778 780 781 783 785 786 787 788 789 791 792 793 795 797 798 800 801 803 804 805 807 808 809 810 811 812 813 814 815 816 816 817
769 770 770 769 769 770 771 773 774 776 776 778 780 781 783 784 785 786 787 789 790 791 793 794 796 798 799 801 802 803 804 805 806 807 808 809 810 811 812 813 814 815
768 769 769 770 770 771 772 773 774 775 776 777 778 779 781 781 783 784 786 787 788 790 791 793 794 796 798 799 800 801 802 803 804 805 806 807 808 808 809 810 811 812
767 768 769 769 770 771 772 773 774 774 775 776 777 777 778 779 780 782 783 785 787 789 790 791 792 794 796 798 799 800 801 801 802 803 803 804 805 806 807 808 808 809
765 766 767 768 769 770 771 772 772 773 774 775 776 776 777 777 778 779 781 783 785 787 788 789 791 793 795 796 797 798 798 799 800 801 802 802 803 804 804 805 806 806
763 765 766 767 768 769 770 770 771 772 772 773 774 775 775 776 777 778 780 782 783 785 786 788 789 791 793 794 794 795 796 797 798 799 799 800 800 801 802 802 803 804
763 764 765 766 767 768 769 769 770 771 771 772 773 774 775 776 777 778 780 781 782 784 785 786 788 789 791 792 792 793 794 795 796 796 797 797 798 798 799 799 800 800
762 763 764 765 767 767 768 769 770 770 771 771 772 773 774 775 777 778 779 780 782 783 784 785 786 787 789 790 790 791 792 793 794 794 794 795 795 795 796 796 796 797